Back to catalog

STARLINK-32594

AliveCommunicationsVLEO
NORAD 62302·PAYLOAD·🇺🇸 United States

Launched Dec 13, 2024 from Vandenberg Space Force Base

Loading…

Next Passes (next 24 hours)

TLE

FreshSource: CelesTrak SupGP

Epoch: Sep 14, 2026, 22:30 UTC

1 62302C 24239B   26257.93798611  .00007043  00000+0  20790-3 0  2570
2 62302  53.1587  29.3973 0001608  72.7246 295.5741 15.34413247    18

Track STARLINK-32594 in real time with AllMySat

Download on the App Store